Temperature
30 32 32 32 32 32 32 32 31 32 32 32 32 32 31 30 29 28 27 26 25 24 23 22 22 21 20 20 20 19 19 18 18 17 17 17 17 17 17 16 16 16 16 16
29 31 32 32 32 32 32 32 32 32 32 33 32 31 30 29 28 27 27 26 25 24 23 22 21 21 20 20 19 19 18 18 17 17 17 17 17 16 16 16 16 16 16 16
28 30 30 30 32 32 32 33 32 32 32 32 31 30 29 28 28 27 26 25 24 23 22 21 21 20 20 19 19 18 18 18 17 17 17 16 16 16 16 16 16 16 15 15
27 28 27 30 33 33 32 32 33 32 32 31 30 28 27 27 26 26 25 24 23 22 21 21 20 20 19 19 18 18 17 17 17 17 16 16 16 16 15 15 15 15 15 15
27 27 28 30 32 32 32 31 32 31 31 30 29 28 27 25 25 24 23 23 22 21 21 20 20 19 19 19 18 17 17 17 16 16 16 16 15 15 15 15 15 15 14 14
26 26 27 29 31 32 32 29 30 30 30 29 29 28 26 24 24 23 22 22 21 21 20 20 19 19 19 18 18 17 17 17 16 16 16 15 15 15 14 14 14 14 14 14
26 26 27 28 30 31 28 27 27 28 28 27 26 26 24 23 22 22 21 20 20 20 19 19 19 18 18 17 17 17 16 16 16 16 15 15 14 14 14 14 14 13 13 13
25 25 26 27 28 27 25 25 26 26 26 25 24 23 22 22 21 20 20 19 19 19 18 18 18 17 17 17 16 16 16 16 15 15 14 14 14 14 14 13 13 13 13 12
26 25 24 24 24 24 24 24 24 24 24 23 23 22 21 20 20 19 19 18 18 18 18 17 17 17 16 16 16 16 15 15 15 15 14 14 14 13 13 13 12 12 12 12
24 24 24 23 23 23 23 23 23 23 23 22 22 21 20 19 19 18 18 18 17 17 17 16 16 16 16 15 15 15 15 15 14 14 14 13 13 13 13 12 12 12 11 11
24 23 23 23 22 22 22 23 22 22 22 21 21 20 19 18 18 17 17 17 17 16 16 15 15 15 15 15 15 14 14 14 13 13 13 13 13 12 12 12 12 11 11 11
23 23 23 22 21 21 21 21 21 21 21 20 20 19 18 17 17 16 16 16 16 15 15 15 15 14 14 14 14 14 14 13 13 12 12 12 12 12 11 11 11 11 10 10
22 22 21 21 21 21 21 20 20 20 19 19 18 18 17 17 16 16 15 15 15 15 14 14 14 14 14 14 14 13 13 13 12 12 12 11 11 11 11 10 10 10 10 10
20 20 20 20 20 20 20 20 19 19 18 18 17 17 16 16 15 15 15 15 14 14 14 14 14 13 13 13 13 13 13 12 12 12 11 11 11 10 10 10 9 9 9 9
20 20 19 19 19 19 19 19 19 18 18 17 16 16 16 15 15 14 14 14 14 14 13 13 13 13 13 13 12 12 12 12 12 11 11 11 10 10 10 9 9 9 9 9
19 19 19 19 18 18 18 18 18 18 17 16 16 15 15 14 14 14 13 13 13 13 13 13 12 12 12 12 12 12 12 12 11 11 11 11 10 10 10 9 9 9 8 8
18 18 18 18 18 18 18 17 17 17 16 16 15 15 14 14 14 13 13 13 13 12 12 12 12 12 12 12 12 12 12 11 11 11 11 10 10 10 10 9 9 9 8 8
18 17 17 17 17 17 17 17 16 16 16 15 15 14 14 13 13 13 12 12 12 12 12 12 12 12 12 12 11 11 11 11 11 11 11 10 10 10 10 9 9 9 8 8
17 17 17 17 16 16 16 16 15 15 15 14 14 14 13 13 13 12 12 12 12 11 11 11 11 11 11 11 11 11 11 11 11 11 10 10 10 10 10 9 9 9 9 8
16 16 16 16 16 16 15 15 15 14 14 14 13 13 12 12 12 12 12 11 11 11 11 11 11 11 11 11 11 11 11 11 11 10 10 10 10 10 10 9 9 9 9 8
15 15 15 15 15 15 14 14 14 14 13 13 13 12 12 12 12 12 11 11 11 11 11 11 11 11 11 11 11 11 11 11 11 10 10 10 10 10 10 9 9 9 9 9
14 14 14 14 14 14 13 13 13 13 13 12 12 12 12 12 11 11 11 11 11 11 11 11 10 11 11 11 11 11 11 11 11 10 10 10 10 10 9 9 9 9 9 9
13 13 13 13 13 13 12 12 12 12 12 12 12 12 11 11 11 11 11 11 11 11 10 10 10 10 10 11 11 11 11 11 10 10 10 10 9 9 9 9 9 9 9 9
12 12 12 12 12 12 12 12 12 11 11 11 11 11 11 11 11 11 11 10 10 10 10 10 10 10 10 10 11 11 10 10 10 10 10 10 10 9 9 9 9 9 9 9
12 12 11 11 11 11 11 11 11 11 11 11 11 11 11 11 11 10 10 10 10 10 10 10 10 10 10 10 10 10 10 10 10 10 10 10 10 10 9 9 9 9 9 9
11 11 11 11 11 11 11 11 11 10 10 10 10 10 10 10 10 10 10 10 9 9 10 10 10 10 10 10 10 10 10 10 10 10 10 10 10 10 10 9 9 9 9 9
10 10 10 10 10 10 10 10 10 10 10 10 10 10 10 10 10 10 10 9 9 9 9 9 10 10 10 10 10 10 10 10 10 10 10 10 10 10 9 9 9 9 9 9
Wind_Speed
17 16 13 14 16 17 17 15 13 10 7 6 6 7 8 9 9 9 10 10 11 11 10 10 9 8 8 7 7 7 6 6 5 5 4 4 4 4 4 3 3 3 3 3
17 18 17 14 14 15 16 15 15 13 7 2 5 8 8 8 9 9 9 10 10 11 11 10 10 9 8 8 7 7 6 6 5 5 5 5 5 4 4 4 4 4 4 4
14 16 17 17 14 14 13 13 13 12 7 3 6 7 7 6 7 9 9 9 9 9 10 9 8 8 9 8 8 7 6 6 6 6 5 5 5 5 4 4 4 4 4 5
13 14 17 13 13 14 14 12 11 6 2 3 7 7 7 6 6 7 8 8 8 8 9 10 9 8 8 9 8 7 7 6 6 6 5 5 5 5 4 4 4 5 5 5
11 15 14 11 10 11 11 8 5 3 3 4 6 8 6 6 6 7 7 8 8 8 8 8 9 9 9 9 8 7 7 6 6 6 6 6 6 5 5 5 6 6 6 6
11 12 11 7 7 6 7 6 2 1 2 3 4 4 4 6 7 8 8 9 9 8 8 8 7 9 9 9 8 7 7 6 6 6 6 6 6 5 5 5 6 6 7 7
15 12 7 5 5 5 7 2 5 5 3 4 4 4 7 9 9 9 9 11 10 9 8 7 7 8 9 9 8 7 7 7 7 7 7 7 6 5 5 6 6 6 7 6
14 13 6 5 1 2 5 7 7 6 7 8 9 10 9 10 10 10 10 10 10 9 9 7 7 8 9 8 8 8 7 8 7 7 6 7 6 6 6 6 6 6 6 6
5 3 6 8 7 6 6 7 6 6 7 8 8 8 9 10 9 9 9 9 8 9 9 8 7 8 9 8 8 9 8 8 8 8 7 6 5 5 4 4 4 4 5 5
2 5 6 7 7 6 6 6 5 6 6 7 7 8 9 9 8 8 8 8 7 8 9 8 8 8 8 8 9 9 8 8 8 8 8 8 6 6 5 5 4 4 4 5
4 4 4 5 5 5 5 5 6 6 6 7 8 8 9 8 8 8 7 7 7 8 8 8 8 8 8 8 8 9 8 8 8 8 9 9 9 8 8 7 6 5 5 5
2 1 2 4 4 4 4 5 5 5 6 7 8 9 8 7 7 8 8 7 7 8 8 8 8 8 7 7 8 8 7 7 7 7 7 8 8 9 15 12 14 15 12 9
1 1 3 4 4 4 3 4 5 5 6 7 8 9 9 8 7 8 8 7 8 8 8 8 8 8 7 6 7 7 7 6 6 7 7 7 7 7 7 8 12 14 13 12
3 3 3 2 2 3 3 4 5 6 6 7 8 9 9 8 8 8 8 8 8 8 8 8 8 7 6 6 7 7 8 7 7 6 6 6 7 7 6 7 6 6 7 8
1 1 1 2 2 2 2 3 4 5 6 7 8 8 8 8 8 8 7 8 8 8 8 8 8 7 6 6 7 7 7 6 5 6 6 6 6 6 6 7 7 6 5 3
1 2 3 3 3 3 3 3 3 4 7 8 7 8 8 8 8 8 7 7 8 8 7 7 7 7 6 7 7 6 6 7 6 6 7 6 6 6 6 6 6 5 5 4
4 4 4 5 5 4 4 4 4 4 6 7 8 8 9 9 9 8 7 7 7 8 7 7 7 7 6 6 6 6 7 7 6 6 6 6 6 6 6 6 6 5 5 4
5 5 5 5 5 5 4 5 6 6 6 7 9 8 8 8 8 8 8 8 8 8 7 7 7 7 7 6 5 6 7 7 6 6 6 6 6 6 6 6 6 6 5 4
5 6 6 5 5 4 5 5 6 6 7 8 8 8 7 7 7 8 8 8 8 8 7 8 8 8 7 6 5 5 7 7 7 6 6 6 5 5 5 6 6 5 5 5
4 4 4 4 4 4 5 6 7 7 7 8 9 9 8 7 7 8 8 7 6 7 8 9 8 7 7 6 4 6 7 7 8 7 6 6 5 6 5 5 5 5 4 4
4 4 4 4 4 4 4 6 7 8 8 9 9 9 9 8 7 7 7 7 7 8 8 8 6 6 6 4 3 4 6 6 7 7 6 6 5 5 4 4 4 4 3 3
3 4 4 4 4 4 4 5 7 8 8 9 9 9 9 8 8 6 6 6 8 8 7 7 6 6 4 3 4 5 5 6 6 5 5 5 5 4 4 4 3 3 3 3
2 3 4 4 4 5 5 6 7 7 8 9 9 9 9 7 7 7 7 7 8 7 5 5 8 8 4 1 3 5 5 6 5 5 5 5 4 4 4 4 3 3 3 2
3 3 4 4 5 7 6 6 6 6 8 8 8 8 8 7 5 5 7 9 8 7 5 8 10 7 1 2 3 4 5 5 5 5 6 5 5 4 4 4 3 3 3 3
4 4 5 6 6 6 7 7 7 8 8 7 8 7 6 6 6 7 8 10 10 8 7 7 6 3 2 2 3 4 4 4 3 3 5 5 5 5 4 3 3 3 2 2
4 4 4 5 5 5 6 7 7 6 7 7 6 5 6 7 8 8 8 9 10 8 7 6 5 3 3 3 3 4 4 4 4 3 3 3 4 3 3 2 2 2 2 2
5 5 5 5 5 5 6 6 7 7 7 7 7 7 7 8 7 8 8 8 8 7 6 6 6 5 4 3 3 3 3 3 3 3 3 2 2 2 2 2 1 1 2 2
Wind_Direction
258 266 248 225 222 227 236 248 254 256 237 198 163 152 138 138 143 148 150 149 146 146 141 141 139 141 141 138 133 130 131 128 127 124 114 107 103 94 86 75 76 68 52 37
248 257 260 249 230 226 230 238 249 257 260 128 114 115 122 135 148 153 158 154 149 147 146 145 146 146 140 135 130 128 129 124 119 116 112 107 103 94 89 78 66 62 58 53
244 244 252 245 237 236 237 236 243 252 241 176 123 117 122 134 150 157 158 152 149 146 144 141 142 137 139 134 133 133 127 122 119 117 113 108 106 98 92 86 74 66 63 62
248 249 243 245 240 239 241 243 245 237 192 110 109 111 107 119 143 144 143 142 138 142 143 146 142 140 136 136 136 133 126 121 120 125 123 114 104 94 85 79 74 66 63 66
241 243 239 240 238 233 232 238 258 221 166 136 141 126 114 108 121 129 132 132 130 131 134 136 140 140 134 133 130 126 122 118 117 117 113 108 100 89 82 80 76 71 66 62
240 246 244 240 234 243 227 212 327 27 118 157 176 184 135 118 114 118 120 120 119 121 119 119 127 133 129 126 120 116 114 111 107 104 103 102 98 93 88 86 84 79 71 63
240 243 241 305 291 229 219 174 39 27 60 88 79 79 102 108 104 106 113 116 116 115 114 109 111 117 118 115 113 112 111 105 99 97 100 101 99 97 97 93 91 88 83 74
232 241 235 350 286 73 70 58 53 50 63 80 89 98 105 107 107 107 108 112 116 113 108 105 109 115 115 113 111 109 105 102 99 95 95 97 98 96 98 101 100 95 89 83
222 199 78 57 66 66 74 69 59 62 76 87 99 104 106 109 108 108 108 111 115 115 110 104 105 110 114 113 113 112 106 102 96 91 84 86 90 95 98 97 98 96 93 86
145 122 99 82 70 57 65 70 66 73 88 98 104 106 107 106 107 108 111 115 116 117 115 107 103 104 109 114 116 116 114 110 105 100 87 68 59 60 61 52 68 85 84 85
183 149 118 95 78 60 62 67 76 78 86 99 107 112 111 110 112 111 110 110 114 112 112 110 108 108 110 116 118 119 118 115 109 98 92 78 66 53 62 54 55 64 69 75
216 147 133 110 96 75 73 73 78 90 96 99 105 109 109 107 108 111 110 107 110 112 115 117 115 112 111 118 124 127 126 124 118 115 111 106 97 80 58 65 64 63 63 77
15 60 92 97 84 76 72 75 79 86 99 103 106 112 112 108 109 111 114 113 112 113 117 117 117 115 117 122 126 126 127 126 123 124 125 123 119 112 101 77 67 64 64 69
67 76 87 92 77 77 85 84 91 96 107 115 113 114 116 118 118 117 119 122 120 119 119 119 116 113 116 125 127 125 126 122 127 128 128 125 125 125 124 122 111 89 69 70
348 36 146 142 150 140 116 120 131 127 126 122 121 121 122 123 122 119 120 122 122 122 123 125 123 124 129 132 133 132 129 132 130 128 129 128 130 127 122 120 117 119 121 108
249 235 203 192 200 194 184 172 163 150 142 133 126 123 121 119 118 118 120 121 125 124 125 126 125 128 135 134 131 127 119 121 131 135 134 134 135 130 126 125 122 125 126 132
232 229 223 212 210 209 197 183 177 162 148 142 133 126 125 124 123 123 120 115 113 116 121 123 125 128 133 139 140 132 128 131 136 133 128 130 129 127 129 132 129 121 111 104
242 234 232 222 207 203 196 182 169 161 157 143 135 135 134 134 135 132 131 125 120 117 120 127 132 137 139 141 136 130 132 138 145 133 128 130 132 135 137 131 129 130 133 135
223 223 225 220 218 214 203 182 165 156 151 142 139 137 136 136 134 135 136 137 136 134 134 132 136 143 142 137 135 132 137 142 138 128 126 128 143 138 136 138 138 139 139 141
210 216 220 218 217 212 196 169 159 157 150 142 141 139 139 139 135 138 138 136 136 135 137 140 149 147 141 139 153 151 147 143 136 134 140 152 145 135 136 136 132 130 131 137
207 199 198 200 188 181 166 163 163 157 151 150 149 146 144 142 144 143 141 134 125 128 135 141 148 139 140 142 186 155 143 139 138 143 148 148 141 140 139 135 133 135 138 139
208 190 181 172 165 157 145 150 153 150 148 149 147 143 143 146 144 137 130 131 135 137 148 151 144 124 116 143 165 146 140 141 142 145 142 137 135 140 141 141 137 134 130 126
176 168 160 160 162 154 145 145 148 147 149 150 150 149 148 146 148 146 137 133 142 152 153 130 118 111 96 173 145 140 142 143 143 145 142 139 144 152 149 144 140 146 154 160
155 150 146 143 144 147 145 142 139 138 139 140 140 141 142 139 133 131 129 130 129 138 127 117 120 118 144 185 147 141 139 144 151 154 151 153 156 151 147 154 164 175 173 175
148 147 143 138 138 140 136 134 131 131 131 129 130 136 137 133 131 126 124 130 134 134 127 133 140 156 207 183 150 139 133 133 135 140 144 153 158 156 163 173 176 179 180 188
140 135 128 129 133 134 137 138 136 132 128 126 126 125 117 114 119 122 127 134 135 138 139 150 162 191 206 174 148 144 143 146 153 156 135 152 156 157 158 162 183 196 189 192
116 114 115 123 129 137 135 134 134 134 131 128 125 121 122 123 126 133 136 139 143 152 155 167 177 192 189 172 156 151 153 158 156 146 152 164 143 142 143 159 188 188 204 205
Height
1479 1472 1470 1474 1478 1479 1484 1485 1491 1488 1486 1484 1483 1486 1491 1496 1501 1506 1510 1514 1518 1521 1525 1528 1531 1534 1536 1538 1539 1540 1541 1541 1542 1543 1543 1544 1544 1545 1545 1545 1545 1545 1545 1545
1485 1475 1472 1473 1472 1474 1477 1479 1481 1482 1484 1479 1483 1487 1493 1497 1502 1506 1511 1514 1518 1521 1524 1527 1530 1532 1535 1537 1538 1539 1540 1541 1542 1543 1543 1544 1544 1544 1545 1545 1545 1545 1545 1545
1490 1479 1477 1483 1473 1473 1474 1473 1477 1483 1481 1479 1483 1489 1494 1498 1502 1506 1510 1514 1518 1521 1523 1526 1529 1531 1533 1535 1537 1538 1540 1541 1542 1542 1543 1544 1544 1544 1545 1545 1545 1545 1545 1544
1490 1489 1501 1478 1463 1465 1470 1471 1471 1475 1478 1482 1487 1492 1496 1499 1503 1506 1510 1514 1517 1520 1523 1525 1528 1530 1533 1535 1537 1538 1539 1541 1541 1542 1543 1543 1544 1544 1545 1545 1545 1545 1544 1544
1492 1493 1487 1473 1465 1465 1471 1475 1472 1475 1479 1484 1489 1493 1498 1501 1503 1507 1510 1513 1517 1520 1522 1525 1527 1530 1532 1534 1536 1538 1539 1540 1541 1542 1543 1543 1543 1544 1544 1544 1544 1544 1544 1544
1491 1497 1496 1478 1465 1464 1469 1482 1478 1479 1482 1486 1488 1493 1500 1503 1504 1507 1510 1513 1516 1519 1522 1524 1527 1529 1531 1533 1535 1537 1538 1539 1541 1542 1542 1543 1543 1544 1544 1544 1544 1544 1544 1544
1492 1492 1485 1474 1468 1469 1485 1490 1483 1484 1486 1489 1491 1496 1501 1503 1506 1508 1511 1514 1516 1519 1521 1524 1527 1528 1530 1532 1534 1536 1538 1539 1540 1541 1542 1543 1543 1544 1544 1544 1544 1544 1544 1544
1489 1493 1492 1477 1473 1480 1487 1486 1487 1489 1490 1492 1496 1499 1502 1505 1507 1509 1512 1514 1517 1519 1522 1524 1527 1528 1530 1532 1534 1535 1537 1539 1540 1541 1542 1543 1543 1544 1544 1544 1545 1545 1545 1545
1480 1485 1484 1482 1484 1487 1488 1490 1491 1492 1494 1496 1499 1502 1504 1506 1509 1511 1513 1515 1518 1520 1522 1525 1527 1529 1530 1532 1534 1535 1537 1538 1539 1541 1542 1543 1543 1544 1545 1545 1545 1545 1546 1545
1480 1482 1485 1486 1488 1490 1491 1493 1495 1496 1497 1499 1501 1504 1506 1508 1511 1513 1515 1517 1519 1521 1523 1525 1527 1529 1530 1532 1533 1535 1537 1538 1539 1540 1541 1542 1543 1544 1544 1545 1546 1546 1546 1546
1480 1484 1486 1489 1491 1492 1494 1495 1497 1498 1499 1501 1503 1505 1508 1510 1512 1514 1516 1518 1520 1521 1523 1525 1527 1529 1530 1532 1533 1535 1537 1538 1539 1541 1541 1542 1543 1544 1544 1545 1546 1546 1546 1546
1482 1484 1487 1491 1492 1495 1496 1497 1499 1500 1501 1503 1505 1506 1509 1511 1513 1514 1516 1518 1520 1522 1524 1526 1527 1529 1530 1532 1534 1535 1537 1538 1540 1541 1542 1543 1543 1544 1545 1546 1547 1547 1547 1548
1484 1486 1488 1491 1493 1495 1498 1499 1500 1502 1503 1505 1506 1508 1509 1511 1513 1515 1517 1518 1520 1522 1524 1526 1527 1529 1530 1532 1534 1535 1537 1539 1540 1541 1543 1544 1544 1545 1546 1547 1548 1549 1549 1549
1486 1488 1490 1493 1495 1497 1498 1500 1501 1503 1505 1506 1507 1509 1510 1512 1514 1516 1517 1519 1521 1522 1524 1526 1527 1529 1530 1532 1534 1536 1537 1539 1540 1542 1543 1545 1546 1546 1547 1548 1549 1550 1551 1551
1487 1488 1491 1494 1496 1498 1499 1501 1502 1504 1506 1507 1508 1510 1511 1513 1515 1516 1518 1519 1521 1523 1524 1526 1527 1529 1531 1533 1534 1536 1538 1539 1541 1543 1544 1546 1547 1548 1549 1550 1551 1551 1552 1553
1489 1490 1492 1494 1496 1498 1500 1501 1502 1504 1506 1508 1509 1510 1512 1513 1515 1517 1518 1519 1521 1522 1524 1526 1527 1529 1531 1533 1535 1536 1538 1540 1542 1544 1545 1547 1548 1550 1551 1551 1552 1553 1554 1555
1489 1490 1492 1494 1496 1497 1499 1500 1502 1504 1505 1507 1509 1510 1512 1514 1515 1517 1518 1520 1522 1523 1524 1526 1528 1530 1532 1533 1535 1537 1539 1541 1543 1545 1546 1547 1549 1551 1552 1553 1553 1554 1555 1556
1489 1490 1491 1493 1494 1496 1497 1499 1501 1503 1505 1506 1508 1510 1512 1514 1515 1517 1519 1521 1522 1524 1525 1527 1529 1530 1532 1534 1536 1538 1539 1541 1543 1546 1547 1549 1550 1551 1552 1554 1555 1555 1556 1558
1487 1488 1490 1491 1493 1494 1496 1498 1499 1501 1503 1505 1507 1510 1512 1514 1516 1517 1519 1521 1523 1524 1526 1527 1529 1531 1533 1535 1537 1539 1541 1543 1545 1546 1548 1549 1551 1552 1553 1555 1556 1557 1558 1559
1485 1486 1487 1489 1491 1492 1494 1496 1498 1500 1503 1505 1507 1509 1512 1514 1516 1518 1519 1522 1523 1525 1526 1528 1530 1533 1534 1536 1538 1540 1542 1544 1545 1547 1548 1550 1551 1553 1554 1555 1557 1558 1559 1560
1484 1485 1486 1487 1489 1491 1492 1494 1497 1499 1502 1504 1506 1509 1511 1514 1516 1518 1520 1522 1523 1525 1527 1529 1532 1533 1535 1537 1539 1541 1543 1544 1546 1547 1549 1550 1552 1553 1554 1556 1557 1558 1559 1560
1483 1484 1485 1487 1489 1490 1492 1494 1496 1498 1501 1503 1506 1508 1511 1513 1516 1518 1520 1522 1523 1525 1528 1530 1532 1534 1536 1538 1540 1542 1543 1545 1546 1548 1549 1551 1552 1553 1555 1556 1558 1559 1559 1560
1482 1483 1484 1486 1488 1489 1491 1494 1496 1498 1500 1503 1505 1508 1511 1513 1515 1518 1520 1522 1524 1526 1528 1531 1533 1534 1537 1538 1540 1542 1544 1545 1546 1548 1549 1551 1553 1554 1555 1557 1558 1559 1559 1560
1482 1483 1484 1485 1487 1489 1491 1493 1496 1498 1500 1503 1506 1508 1511 1513 1516 1518 1520 1522 1525 1527 1529 1531 1534 1536 1537 1539 1541 1543 1544 1545 1547 1548 1550 1551 1553 1554 1555 1556 1557 1558 1559 1559
1482 1483 1484 1485 1487 1489 1491 1493 1496 1498 1501 1503 1506 1509 1511 1514 1516 1518 1520 1522 1525 1528 1530 1532 1535 1537 1538 1540 1542 1544 1545 1546 1548 1549 1550 1552 1553 1554 1555 1556 1557 1558 1558 1559
1482 1483 1484 1486 1488 1489 1492 1494 1496 1499 1501 1504 1507 1510 1512 1514 1516 1519 1521 1523 1526 1529 1531 1533 1535 1537 1539 1541 1543 1545 1546 1547 1548 1550 1551 1552 1553 1554 1555 1556 1556 1557 1557 1557
1482 1484 1485 1487 1489 1491 1493 1495 1497 1500 1502 1505 1508 1511 1513 1516 1518 1520 1523 1525 1528 1530 1532 1534 1536 1538 1540 1542 1544 1545 1546 1548 1549 1550 1551 1552 1553 1553 1554 1554 1555 1555 1556 1556